Regional Weather Roundup
Issued by NWS

Home | Current Version | Previous Version | Graphics & Text | Print | Product List | Glossary Off
Versions: 1 2 3 4 5 6 7 8 9 10 11 12 13 14 15 16 17 18 19 20 21 22 23 24 25 26 27 28 29 30 31 32 33 34 35 36 37 38 39 40 41 42 43 44 45 46 47 48 49 50

000
ASUS43 KTOP 172108
RWRKS

WEATHER ROUNDUP FOR KANSAS
NATIONAL WEATHER SERVICE GOODLAND KS
400 PM CDT THU AUG 17 2017

NOTE:  "FAIR" INDICATES FEW OR NO CLOUDS BELOW 12,000 FEET WITH NO
SIGNIFICANT WEATHER AND/OR OBSTRUCTIONS TO VISIBILITY.

KSZ001>006-013>018-027>032-041>047-172200-
NORTHWEST KANSAS

CITY           SKY/WX    TMP DP  RH WIND       PRES   REMARKS
GOODLAND       SUNNY     84  59  42 S16G24    30.05F
HAYS           SUNNY     87  49  26 VRB5      30.02F
HILL CITY      SUNNY     90  49  24 VRB3      30.01F
RUSSELL        SUNNY     87  55  33 S8        30.00F
$$

KSZ061>065-074>080-084>089-172200-
SOUTHWEST KANSAS

CITY           SKY/WX    TMP DP  RH WIND       PRES   REMARKS
DODGE CITY     SUNNY     89  53  29 SW7G17    30.05F
ELKHART          N/A     86  65  49 S13         N/A
GARDEN CITY    SUNNY     88  55  32 S10       30.05F
GREAT BEND     SUNNY     87  54  32 S9        30.03F
LIBERAL        SUNNY     88  59  37 S14       30.06F
PRATT          SUNNY     88  46  23 SE9       30.04S
$$

KSZ066>073-081>083-090>101-172200-
SOUTHEAST KANSAS

CITY           SKY/WX    TMP DP  RH WIND       PRES   REMARKS
CHANUTE        SUNNY     84  59  42 VRB6      30.00S
COFFEYVILLE    SUNNY     86  61  42 NW9       29.99F
HUTCHINSON     SUNNY     87  54  32 SE5       30.01F
MEDICINE LODGE   N/A     87  56  34 VRB3      30.02F
NEWTON         SUNNY     83  57  41 N3        30.03F
PARSONS        SUNNY     85  62  46 W8        30.01S
WICHITA INTL   MOSUNNY   88  54  31 CALM      30.01F
WICHITA JABRA  SUNNY     85  58  39 CALM      30.02F
WICHITA MCCONL SUNNY     87  55  33 S5        30.02F
WINFIELD       SUNNY     84  63  49 S6        30.03F
$$

KSZ007>012-019>026-033>040-048>060-102>105-172200-
NORTHEAST KANSAS

CITY           SKY/WX    TMP DP  RH WIND       PRES   REMARKS
CONCORDIA      SUNNY     86  58  38 W6        29.98F
EMPORIA        SUNNY     84  57  39 VRB6      30.00S
LAWRENCE       SUNNY     84  62  47 W9        29.95F
MANHATTAN      SUNNY     86  60  41 W6        29.97F
MARYSVILLE     SUNNY     88  55  33 NW7       29.96F
OLATHE IND     SUNNY     82  61  48 NW10      29.97F
OLATHE EXE     SUNNY     81  61  50 NW10G17   29.97F
SALINA         SUNNY     91  51  25 CALM      29.99F
TOPEKA BILLARD SUNNY     87  59  38 W9        29.95F
TOPEKA FORBES  SUNNY     85  61  44 NW10      29.97S
$$




USA.gov is the U.S. government's official web portal to all federal, state and local government web resources and services.